カタログに戻る

DELTA 1 DEB

運用中SSO
NORAD 13574·DEBRIS·🇺🇸 United States

打ち上げ Mar 5, 1978 から Vandenberg Space Force Base

Loading…

次のパス (今後24時間)

TLE

最新Source: Space-Track

元期: Sep 14, 2026, 11:26 UTC

1 13574U 78026FM  26257.47669626  .00000363  00000-0  19845-3 0  9993
2 13574  99.0506 251.1448 0036399 251.0342 262.6497 14.18096603319224

AllMySatでDELTA 1 DEBをリアルタイム追跡

Download on the App Store